VIR226 KMCO-EGPH

Flight info

Callsign VIR226
Flight time N/A
Altitude 35000
Route FATHE4 VIYAP Q87 JROSS DCT ELLDE Q97 KALDA DCT ZJAAY Q167 RIFLE DCT ACK DCT TUSKY/N0493F370 N429A ELSIR/M085F380 NATQ SOVED/N0486F390 DCT MIMKU DCT DONIB DCT MAC/N0480F250 N562 TRN DCT TLA GIRVA1E
Aircraft A35K/H-SDE2E3GHIJ3J4J5LM1ORWXY/LB1D1

Departure

Time 2026-04-25 22:38
Airport Orlando International Airport (KMCO)

Arrival

Time N/A
Airport Edinburgh Airport (EGPH)
Time Latitude Longitude Altitude Speed Heading
2026-04-25 21:49 28.42648 -81.31577 100 ft 0 kts 130°
2026-04-25 22:14 28.42648 -81.31578 100 ft 1 kts 130°
2026-04-25 22:14 28.42664 -81.31597 101 ft 4 kts 130°
2026-04-25 22:15 28.42672 -81.31609 100 ft 2 kts 117°
2026-04-25 22:15 28.42686 -81.31633 101 ft 6 kts 135°
2026-04-25 22:15 28.42707 -81.31651 100 ft 4 kts 162°
2026-04-25 22:16 28.42717 -81.31654 100 ft 0 kts 171°
2026-04-25 22:24 28.42711 -81.31658 101 ft 0 kts 206°
2026-04-25 22:24 28.42708 -81.31674 103 ft 6 kts 264°
2026-04-25 22:24 28.42708 -81.31696 105 ft 0 kts 272°
2026-04-25 22:25 28.42708 -81.31700 105 ft 2 kts 272°
2026-04-25 22:25 28.42708 -81.31733 105 ft 7 kts 269°
2026-04-25 22:26 28.42715 -81.31805 106 ft 9 kts 294°
2026-04-25 22:26 28.42778 -81.31835 105 ft 12 kts 356°
2026-04-25 22:26 28.42879 -81.31837 104 ft 18 kts 360°
2026-04-25 22:26 28.43023 -81.31840 104 ft 23 kts 359°
2026-04-25 22:27 28.43198 -81.31842 106 ft 27 kts 359°
2026-04-25 22:27 28.43402 -81.31844 104 ft 31 kts 359°
2026-04-25 22:27 28.43625 -81.31846 104 ft 34 kts 359°
2026-04-25 22:27 28.43796 -81.31847 104 ft 15 kts 359°
2026-04-25 22:28 28.43891 -81.31849 105 ft 10 kts
2026-04-25 22:28 28.43923 -81.31781 107 ft 12 kts 90°
2026-04-25 22:28 28.43923 -81.31698 110 ft 9 kts 90°
2026-04-25 22:28 28.43924 -81.31612 110 ft 15 kts 89°
2026-04-25 22:29 28.43925 -81.31463 108 ft 23 kts 89°
2026-04-25 22:29 28.43932 -81.31289 113 ft 15 kts 87°
2026-04-25 22:29 28.43938 -81.31169 112 ft 14 kts 87°
2026-04-25 22:30 28.43943 -81.30942 113 ft 16 kts 90°
2026-04-25 22:30 28.43940 -81.30815 113 ft 15 kts 93°
2026-04-25 22:30 28.43932 -81.30691 115 ft 16 kts 94°
2026-04-25 22:30 28.43926 -81.30600 109 ft 19 kts 94°
2026-04-25 22:31 28.43914 -81.30393 108 ft 22 kts 92°
2026-04-25 22:31 28.43907 -81.30214 108 ft 24 kts 92°
2026-04-25 22:31 28.43899 -81.30040 105 ft 17 kts 94°
2026-04-25 22:31 28.43853 -81.29902 103 ft 21 kts 128°
2026-04-25 22:32 28.43725 -81.29814 103 ft 14 kts 168°
2026-04-25 22:32 28.43650 -81.29808 104 ft 12 kts 178°
2026-04-25 22:32 28.43573 -81.29802 103 ft 9 kts 159°
2026-04-25 22:32 28.43549 -81.29735 103 ft 10 kts 93°
2026-04-25 22:33 28.43550 -81.29714 103 ft 0 kts 88°
2026-04-25 22:35 28.43550 -81.29710 103 ft 2 kts 88°
2026-04-25 22:35 28.43552 -81.29664 104 ft 6 kts 87°
2026-04-25 22:35 28.43544 -81.29619 104 ft 6 kts 115°
2026-04-25 22:36 28.43518 -81.29593 104 ft 5 kts 158°
2026-04-25 22:36 28.43484 -81.29586 105 ft 5 kts 172°
2026-04-25 22:36 28.43454 -81.29585 104 ft 0 kts 180°
2026-04-25 22:38 28.43436 -81.29585 104 ft 13 kts 180°
2026-04-25 22:38 28.43072 -81.29583 104 ft 96 kts 179°
2026-04-25 22:38 28.42121 -81.29571 103 ft 175 kts 180°
2026-04-25 22:38 28.40844 -81.29519 1019 ft 176 kts 178°
2026-04-25 22:39 28.39545 -81.29420 1693 ft 196 kts 178°
2026-04-25 22:39 28.38082 -81.29285 1705 ft 227 kts 174°
2026-04-25 22:39 28.36433 -81.28763 1472 ft 268 kts 159°
2026-04-25 22:39 28.34889 -81.27645 2341 ft 248 kts 135°
2026-04-25 22:40 28.33762 -81.26130 2635 ft 272 kts 126°
2026-04-25 22:40 28.32517 -81.24398 2595 ft 299 kts 132°
2026-04-25 22:40 28.30992 -81.22660 2986 ft 305 kts 137°
2026-04-25 22:40 28.29570 -81.21010 4121 ft 290 kts 133°
2026-04-25 22:41 28.28305 -81.19273 5111 ft 283 kts 131°
2026-04-25 22:41 28.27069 -81.17544 5932 ft 281 kts 132°
2026-04-25 22:41 28.25805 -81.15856 6571 ft 280 kts 134°
2026-04-25 22:41 28.24509 -81.14192 6896 ft 283 kts 134°
2026-04-25 22:42 28.23189 -81.12535 6971 ft 284 kts 134°
2026-04-25 22:42 28.21996 -81.10738 6979 ft 287 kts 121°
2026-04-25 22:42 28.21334 -81.08600 6975 ft 291 kts 98°
2026-04-25 22:42 28.21517 -81.06341 6979 ft 291 kts 70°
2026-04-25 22:43 28.22644 -81.04445 7177 ft 293 kts 39°
2026-04-25 22:43 28.24444 -81.03417 7802 ft 291 kts
2026-04-25 22:43 28.26429 -81.03439 8514 ft 284 kts 342°
2026-04-25 22:43 28.28169 -81.04412 9098 ft 280 kts 315°
2026-04-25 22:44 28.29499 -81.06010 9753 ft 279 kts 309°
2026-04-25 22:44 28.30790 -81.07634 10269 ft 284 kts 310°
2026-04-25 22:44 28.32181 -81.09309 10524 ft 299 kts 312°
2026-04-25 22:44 28.33804 -81.10890 10770 ft 315 kts 324°
2026-04-25 22:45 28.35831 -81.11978 11028 ft 332 kts 340°
2026-04-25 22:45 28.38103 -81.12684 11278 ft 346 kts 344°
2026-04-25 22:45 28.40490 -81.13317 11484 ft 358 kts 345°
2026-04-25 22:45 28.42960 -81.13953 11721 ft 369 kts 345°
2026-04-25 22:46 28.45499 -81.14604 11995 ft 377 kts 345°
2026-04-25 22:46 28.48071 -81.15263 12417 ft 380 kts 345°
2026-04-25 22:46 28.50653 -81.15923 12907 ft 382 kts 345°
2026-04-25 22:46 28.53258 -81.16590 13368 ft 383 kts 345°
2026-04-25 22:47 28.55829 -81.17249 13810 ft 385 kts 345°
2026-04-25 22:47 28.58451 -81.17922 14210 ft 387 kts 345°
2026-04-25 22:47 28.61089 -81.18600 14619 ft 390 kts 345°
2026-04-25 22:47 28.63746 -81.19284 15033 ft 392 kts 345°
2026-04-25 22:48 28.66415 -81.19970 15431 ft 394 kts 345°
2026-04-25 22:48 28.69104 -81.20662 15803 ft 398 kts 345°
2026-04-25 22:48 28.71812 -81.21360 16149 ft 401 kts 346°
2026-04-25 22:48 28.74541 -81.22063 16527 ft 403 kts 346°
2026-04-25 22:49 28.77279 -81.22769 16914 ft 405 kts 346°
2026-04-25 22:49 28.80032 -81.23479 17283 ft 407 kts 346°
2026-04-25 22:49 28.82795 -81.24193 17653 ft 409 kts 346°
2026-04-25 22:49 28.85583 -81.24912 18023 ft 411 kts 346°
2026-04-25 22:50 28.88382 -81.25635 18364 ft 413 kts 346°
2026-04-25 22:50 28.91190 -81.26362 18664 ft 415 kts 346°
2026-04-25 22:50 28.94015 -81.27093 18956 ft 417 kts 346°
2026-04-25 22:50 28.96858 -81.27829 19270 ft 419 kts 346°
2026-04-25 22:51 28.99712 -81.28567 19549 ft 422 kts 345°
2026-04-25 22:51 29.02575 -81.29308 19869 ft 423 kts 345°
2026-04-25 22:51 29.05455 -81.30056 20175 ft 425 kts 345°
2026-04-25 22:51 29.08348 -81.30806 20449 ft 427 kts 345°
2026-04-25 22:52 29.11290 -81.31402 20718 ft 431 kts 352°
2026-04-25 22:52 29.14290 -81.31651 21026 ft 434 kts 355°
2026-04-25 22:52 29.17314 -81.31826 21301 ft 436 kts 355°
2026-04-25 22:52 29.19323 -81.31940 21482 ft 438 kts 355°
2026-04-25 22:53 29.23403 -81.32176 21850 ft 440 kts 355°
2026-04-25 22:53 29.26470 -81.32357 22121 ft 442 kts 355°
2026-04-25 22:53 29.29518 -81.32539 22330 ft 446 kts 355°
2026-04-25 22:53 29.32634 -81.32725 22575 ft 448 kts 355°
2026-04-25 22:54 29.35758 -81.32913 22845 ft 450 kts 355°
2026-04-25 22:54 29.38890 -81.33101 23115 ft 452 kts 355°
2026-04-25 22:54 29.42035 -81.33290 23377 ft 454 kts 355°
2026-04-25 22:54 29.45200 -81.33481 23610 ft 456 kts 355°
2026-04-25 22:55 29.48375 -81.33673 23846 ft 457 kts 355°
2026-04-25 22:55 29.51562 -81.33865 24086 ft 458 kts 355°
2026-04-25 22:55 29.54749 -81.34058 24319 ft 460 kts 355°
2026-04-25 22:55 29.57955 -81.34252 24508 ft 463 kts 355°
2026-04-25 22:56 29.61177 -81.34447 24722 ft 464 kts 355°
2026-04-25 22:56 29.64409 -81.34643 24973 ft 465 kts 355°
2026-04-25 22:56 29.67645 -81.34834 25214 ft 466 kts 355°
2026-04-25 22:56 29.70891 -81.35017 25447 ft 468 kts 355°
2026-04-25 22:57 29.74099 -81.35198 25690 ft 469 kts 355°
2026-04-25 22:57 29.77361 -81.35384 25932 ft 470 kts 355°
2026-04-25 22:57 29.80636 -81.35571 26161 ft 471 kts 355°
2026-04-25 22:57 29.83925 -81.35759 26408 ft 473 kts 355°
2026-04-25 22:58 29.87227 -81.35948 26604 ft 475 kts 355°
2026-04-25 22:58 29.90538 -81.36139 26818 ft 477 kts 355°
2026-04-25 22:58 29.93863 -81.36330 27085 ft 478 kts 355°
2026-04-25 22:58 29.97189 -81.36521 27332 ft 479 kts 355°
2026-04-25 22:59 30.00525 -81.36713 27573 ft 481 kts 355°
2026-04-25 22:59 30.03870 -81.36906 27815 ft 482 kts 355°
2026-04-25 22:59 30.07233 -81.37100 28043 ft 484 kts 355°
2026-04-25 22:59 30.10551 -81.37291 28270 ft 485 kts 355°
2026-04-25 23:00 30.13932 -81.37486 28463 ft 487 kts 354°
2026-04-25 23:00 30.17334 -81.37683 28625 ft 490 kts 354°
2026-04-25 23:00 30.20742 -81.37880 28851 ft 491 kts 354°
2026-04-25 23:00 30.24162 -81.38078 29055 ft 492 kts 354°
2026-04-25 23:01 30.27581 -81.38276 29257 ft 493 kts 354°
2026-04-25 23:01 30.31014 -81.38475 29494 ft 494 kts 354°
2026-04-25 23:01 30.34447 -81.38673 29822 ft 492 kts 354°
2026-04-25 23:01 30.37861 -81.38871 30132 ft 491 kts 354°
2026-04-25 23:02 30.41272 -81.39069 30397 ft 491 kts 354°
2026-04-25 23:02 30.44682 -81.39267 30657 ft 490 kts 354°
2026-04-25 23:02 30.46935 -81.39399 30852 ft 490 kts 354°
2026-04-25 23:02 30.50343 -81.39588 31153 ft 489 kts 355°
2026-04-25 23:03 30.53738 -81.39762 31466 ft 488 kts 355°
2026-04-25 23:03 30.57122 -81.39936 31760 ft 487 kts 355°
2026-04-25 23:03 30.60507 -81.40112 32046 ft 486 kts 355°
2026-04-25 23:03 30.63887 -81.40290 32345 ft 486 kts 355°
2026-04-25 23:04 30.67265 -81.40468 32636 ft 485 kts 355°
2026-04-25 23:04 30.70641 -81.40647 32833 ft 486 kts 354°
2026-04-25 23:04 30.74028 -81.40827 33021 ft 487 kts 354°
2026-04-25 23:04 30.77413 -81.41006 33339 ft 486 kts 354°
2026-04-25 23:05 30.80780 -81.41185 33683 ft 483 kts 354°
2026-04-25 23:05 30.84096 -81.41361 33983 ft 482 kts 354°
2026-04-25 23:05 30.87445 -81.41539 34242 ft 481 kts 354°
2026-04-25 23:05 30.90778 -81.41716 34490 ft 480 kts 354°
2026-04-25 23:06 30.94111 -81.41894 34736 ft 479 kts 354°
2026-04-25 23:06 30.97442 -81.42072 34871 ft 481 kts 354°
2026-04-25 23:06 31.04181 -81.42434 34879 ft 485 kts 354°
2026-04-25 23:07 31.10926 -81.42794 34878 ft 485 kts 354°
2026-04-25 23:07 31.17674 -81.43155 34878 ft 485 kts 354°
2026-04-25 23:08 31.24445 -81.42983 34915 ft 491 kts
2026-04-25 23:08 31.31018 -81.40512 34897 ft 502 kts 19°
2026-04-25 23:09 31.37387 -81.37111 34893 ft 504 kts 21°
2026-04-25 23:09 31.43689 -81.33615 34890 ft 504 kts 21°
2026-04-25 23:10 31.50049 -81.30114 34882 ft 504 kts 21°
2026-04-25 23:10 31.56413 -81.26641 34873 ft 504 kts 21°
2026-04-25 23:11 31.62757 -81.23184 34872 ft 501 kts 21°
2026-04-25 23:11 31.69075 -81.19739 34865 ft 501 kts 21°
2026-04-25 23:12 31.75396 -81.16288 34861 ft 501 kts 21°
2026-04-25 23:12 31.81713 -81.12827 34854 ft 502 kts 20°
2026-04-25 23:13 31.88008 -81.09374 34852 ft 503 kts 20°
2026-04-25 23:13 31.94347 -81.05892 34850 ft 503 kts 20°
2026-04-25 23:14 32.00687 -81.02405 34851 ft 503 kts 20°
2026-04-25 23:14 32.07025 -80.98885 34856 ft 505 kts 21°
2026-04-25 23:15 32.13387 -80.95310 34853 ft 507 kts 21°
2026-04-25 23:15 32.19755 -80.91728 34888 ft 507 kts 21°
2026-04-25 23:16 32.26125 -80.88148 34888 ft 505 kts 21°
2026-04-25 23:16 32.32465 -80.84582 34897 ft 504 kts 21°
2026-04-25 23:17 32.38808 -80.81012 34881 ft 505 kts 21°
2026-04-25 23:17 32.45156 -80.77432 34881 ft 505 kts 21°
2026-04-25 23:18 32.51504 -80.73846 34875 ft 506 kts 21°
2026-04-25 23:18 32.57858 -80.70250 34869 ft 506 kts 21°
2026-04-25 23:19 32.64180 -80.66668 34869 ft 507 kts 21°
2026-04-25 23:19 32.70454 -80.62796 34874 ft 513 kts 30°
2026-04-25 23:20 32.76001 -80.57386 34866 ft 518 kts 38°
2026-04-25 23:20 32.81289 -80.51548 34869 ft 519 kts 40°
2026-04-25 23:21 32.86532 -80.45646 34874 ft 519 kts 40°
2026-04-25 23:21 32.91792 -80.39746 34871 ft 519 kts 40°
2026-04-25 23:22 32.97060 -80.33856 34876 ft 519 kts 39°
2026-04-25 23:23 33.04966 -80.25012 34877 ft 519 kts 40°
2026-04-25 23:23 33.10230 -80.19110 34878 ft 519 kts 40°
2026-04-25 23:24 33.15459 -80.13236 34879 ft 519 kts 40°
2026-04-25 23:24 33.20694 -80.07343 34881 ft 517 kts 40°
2026-04-25 23:25 33.25934 -80.01436 34877 ft 517 kts 40°
2026-04-25 23:25 33.31161 -79.95535 34875 ft 517 kts 40°
2026-04-25 23:26 33.36401 -79.89609 34874 ft 518 kts 40°
2026-04-25 23:26 33.41636 -79.83676 34871 ft 518 kts 40°
2026-04-25 23:27 33.46871 -79.77733 34860 ft 518 kts 40°
2026-04-25 23:27 33.52089 -79.71799 34867 ft 516 kts 40°
2026-04-25 23:28 33.57304 -79.65859 34865 ft 518 kts 40°
2026-04-25 23:28 33.62497 -79.59934 34863 ft 519 kts 40°
2026-04-25 23:29 33.67726 -79.53957 34866 ft 519 kts 40°
2026-04-25 23:29 33.72948 -79.47977 34867 ft 519 kts 40°
2026-04-25 23:30 33.78181 -79.41973 34874 ft 519 kts 40°
2026-04-25 23:30 33.83400 -79.35975 34875 ft 519 kts 40°
2026-04-25 23:31 33.88615 -79.29971 34877 ft 519 kts 40°
2026-04-25 23:31 33.93825 -79.23961 34878 ft 519 kts 40°
2026-04-25 23:32 33.99040 -79.17936 34875 ft 519 kts 40°
2026-04-25 23:32 34.04216 -79.11946 34874 ft 520 kts 40°
2026-04-25 23:33 34.09432 -79.05897 34861 ft 520 kts 40°
2026-04-25 23:33 34.14641 -78.99846 34860 ft 519 kts 41°
2026-04-25 23:34 34.19838 -78.93797 34858 ft 518 kts 41°